Tracking 17856 objects as of 28-September-2016
HD Live streaming from Space Station
objects crossing your sky now

METEOSAT 9 (MSG 2)

Track METEOSAT 9 (MSG 2) now!
METEOSAT 9 (MSG 2) is classified as:


NORAD ID: 28912
Int'l Code: 2005-049B
Perigee: 35,866.4 km
Apogee: 35,873.8 km
Inclination: 1.7 °
Period: 1,440.0 minutes
Semi major axis: 42241 km
RCS: 2.0767 m2 (large)
Launch date: December 21, 2005
Source: European Organisation for the Exploitation of Meteorological Satellites (EUME)
Launch site: FRENCH GUIANA (FRGUI)
Your satellite tracking list
Your tracking list is empty





NASA's NSSDC Master Catalog

Two Line Element Set (TLE):
1 28912U 05049B   16271.15104861  .00000000  00000-0  10000-3 0  9997
2 28912   1.6893  69.2827 0000880 130.8588 229.8895  1.00271117 39481
Source of the keplerian elements: AFSPC

N2YO: 538